Stündliche Wetter Bolshie Eysmonty

Heute, 11 April, Sonntag

Zeit Temperatur Niederschläge Wind Luftdruck Luftfeuchtigkeit
00:00 +10°C° 0.1 mm 1 m/S 752 mmHg 80%
01:00 +10°C° 0.1 mm 1 m/S 752 mmHg 80%
02:00 +8°C° 0 mm 2 m/S 752 mmHg 79%
03:00 +8°C° 0 mm 2 m/S 752 mmHg 78%
04:00 +8°C° 0 mm 2 m/S 753 mmHg 78%
05:00 +8°C° 0 mm 2 m/S 753 mmHg 78%
06:00 +8°C° 0 mm 2 m/S 753 mmHg 76%
07:00 +9°C° 0 mm 3 m/S 753 mmHg 75%
08:00 +10°C° 0 mm 3 m/S 754 mmHg 74%
09:00 +11°C° 0 mm 3 m/S 754 mmHg 67%
10:00 +13°C° 0 mm 4 m/S 754 mmHg 61%
11:00 +15°C° 0 mm 5 m/S 754 mmHg 55%
12:00 +15°C° 0 mm 5 m/S 754 mmHg 51%
13:00 +16°C° 0 mm 6 m/S 754 mmHg 46%
14:00 +17°C° 0 mm 7 m/S 754 mmHg 42%
15:00 +17°C° 0 mm 7 m/S 754 mmHg 43%
16:00 +16°C° 0 mm 6 m/S 754 mmHg 45%
17:00 +16°C° 0 mm 6 m/S 754 mmHg 47%
18:00 +15°C° 0 mm 6 m/S 754 mmHg 50%
19:00 +13°C° 0 mm 6 m/S 754 mmHg 53%
20:00 +12°C° 0 mm 5 m/S 754 mmHg 56%
21:00 +10°C° 0 mm 5 m/S 754 mmHg 56%
22:00 +10°C° 0 mm 6 m/S 754 mmHg 55%
23:00 +10°C° 0 mm 6 m/S 754 mmHg 55%

Morgen, 12 April, Montag

Zeit Temperatur Niederschläge Wind Luftdruck Luftfeuchtigkeit
00:00 +9°C° 0 mm 6 m/S 754 mmHg 56%
01:00 +9°C° 0 mm 6 m/S 754 mmHg 56%
02:00 +8°C° 0 mm 6 m/S 754 mmHg 57%
03:00 +8°C° 0 mm 6 m/S 754 mmHg 57%
04:00 +7°C° 0 mm 6 m/S 754 mmHg 57%
05:00 +7°C° 0 mm 5 m/S 754 mmHg 57%
06:00 +7°C° 0 mm 6 m/S 754 mmHg 58%
07:00 +7°C° 0 mm 6 m/S 754 mmHg 58%
08:00 +8°C° 0 mm 6 m/S 754 mmHg 58%
09:00 +9°C° 0 mm 6 m/S 754 mmHg 57%
10:00 +10°C° 0 mm 6 m/S 753 mmHg 55%
11:00 +11°C° 0 mm 6 m/S 753 mmHg 54%
12:00 +11°C° 0 mm 6 m/S 753 mmHg 56%
13:00 +12°C° 0 mm 5 m/S 753 mmHg 58%
14:00 +12°C° 0 mm 5 m/S 753 mmHg 60%
15:00 +12°C° 0 mm 4 m/S 752 mmHg 60%
16:00 +12°C° 0 mm 4 m/S 752 mmHg 61%
17:00 +12°C° 0 mm 4 m/S 752 mmHg 62%
18:00 +12°C° 0.2 mm 4 m/S 752 mmHg 68%
19:00 +11°C° 0.2 mm 4 m/S 752 mmHg 74%
20:00 +11°C° 0.2 mm 4 m/S 752 mmHg 79%
21:00 +11°C° 0.2 mm 4 m/S 752 mmHg 82%
22:00 +10°C° 0.2 mm 4 m/S 752 mmHg 85%
23:00 +10°C° 0.2 mm 4 m/S 752 mmHg 87%

übermorgen, 13 April, Dienstag

Zeit Temperatur Niederschläge Wind Luftdruck Luftfeuchtigkeit
00:00 +10°C° 0.1 mm 4 m/S 752 mmHg 89%
01:00 +8°C° 0.1 mm 4 m/S 752 mmHg 91%
02:00 +9°C° 0.1 mm 3 m/S 752 mmHg 93%
03:00 +7°C° 0 mm 4 m/S 753 mmHg 92%
04:00 +6°C° 0 mm 4 m/S 753 mmHg 91%
05:00 +4°C° 0 mm 4 m/S 753 mmHg 91%
06:00 +4°C° 0 mm 4 m/S 754 mmHg 89%
07:00 +4°C° 0 mm 4 m/S 754 mmHg 87%
08:00 +4°C° 0 mm 4 m/S 754 mmHg 86%
09:00 +4°C° 0 mm 4 m/S 755 mmHg 83%
10:00 +5°C° 0 mm 5 m/S 755 mmHg 81%
11:00 +5°C° 0 mm 5 m/S 755 mmHg 78%
12:00 +5°C° 0 mm 5 m/S 755 mmHg 78%
13:00 +5°C° 0 mm 5 m/S 755 mmHg 77%
14:00 +4°C° 0 mm 6 m/S 755 mmHg 76%
15:00 +4°C° 0.1 mm 6 m/S 755 mmHg 77%
16:00 +5°C° 0.1 mm 5 m/S 755 mmHg 77%
17:00 +3°C° 0.1 mm 5 m/S 755 mmHg 78%
18:00 +3°C° 0.2 mm 5 m/S 755 mmHg 76%
19:00 +3°C° 0.2 mm 5 m/S 755 mmHg 75%
20:00 +3°C° 0.2 mm 5 m/S 755 mmHg 74%
21:00 +2°C° 0.3 mm 5 m/S 755 mmHg 78%
22:00 +2°C° 0.3 mm 6 m/S 755 mmHg 82%
23:00 +2°C° 0.3 mm 6 m/S 755 mmHg 86%

14 April, Mittwoch

Zeit Temperatur Niederschläge Wind Luftdruck Luftfeuchtigkeit
00:00 +1°C° 0.2 mm 6 m/S 754 mmHg 89%
01:00 +1°C° 0.2 mm 6 m/S 754 mmHg 92%
02:00 -1°C° 0.2 mm 6 m/S 754 mmHg 95%
03:00 -1°C° 0.2 mm 6 m/S 754 mmHg 95%
04:00 -1°C° 0.2 mm 7 m/S 753 mmHg 96%
05:00 -1°C° 0.2 mm 7 m/S 753 mmHg 96%
06:00 -1°C° 0.2 mm 7 m/S 753 mmHg 96%
07:00 -1°C° 0.2 mm 7 m/S 753 mmHg 96%
08:00 -1°C° 0.2 mm 7 m/S 753 mmHg 96%
09:00 -1°C° 0.1 mm 7 m/S 753 mmHg 96%
10:00 -1°C° 0.1 mm 7 m/S 753 mmHg 95%
11:00 0°C° 0.1 mm 7 m/S 753 mmHg 95%
12:00 -1°C° 0.6 mm 7 m/S 752 mmHg 96%
13:00 -1°C° 0.6 mm 7 m/S 752 mmHg 96%
14:00 -1°C° 0.6 mm 7 m/S 752 mmHg 96%
15:00 -1°C° 1.4 mm 7 m/S 752 mmHg 96%
16:00 -1°C° 1.4 mm 7 m/S 752 mmHg 97%
17:00 -1°C° 1.4 mm 7 m/S 752 mmHg 97%
18:00 -1°C° 0.8 mm 7 m/S 752 mmHg 97%
19:00 -1°C° 0.8 mm 7 m/S 752 mmHg 97%
20:00 -1°C° 0.8 mm 7 m/S 752 mmHg 97%
21:00 -1°C° 0.2 mm 7 m/S 752 mmHg 97%
22:00 -1°C° 0.2 mm 7 m/S 752 mmHg 97%
23:00 -1°C° 0.2 mm 7 m/S 752 mmHg 97%

15 April, Donnerstag

Zeit Temperatur Niederschläge Wind Luftdruck Luftfeuchtigkeit
00:00 -1°C° 0.1 mm 6 m/S 752 mmHg 97%
01:00 -1°C° 0.1 mm 6 m/S 752 mmHg 97%
02:00 -1°C° 0.1 mm 6 m/S 752 mmHg 97%
03:00 +1°C° 0 mm 6 m/S 752 mmHg 97%
04:00 +1°C° 0 mm 6 m/S 752 mmHg 97%
05:00 +1°C° 0 mm 6 m/S 752 mmHg 97%
06:00 +1°C° 0 mm 6 m/S 752 mmHg 96%
07:00 +1°C° 0 mm 6 m/S 752 mmHg 96%
08:00 +1°C° 0 mm 6 m/S 752 mmHg 96%
09:00 +2°C° 0 mm 6 m/S 753 mmHg 95%
10:00 +2°C° 0 mm 6 m/S 753 mmHg 94%
11:00 +2°C° 0 mm 6 m/S 753 mmHg 94%
12:00 +3°C° 0 mm 6 m/S 753 mmHg 91%
13:00 +3°C° 0 mm 6 m/S 753 mmHg 89%
14:00 +4°C° 0 mm 6 m/S 753 mmHg 86%
15:00 +4°C° 0 mm 6 m/S 753 mmHg 86%
16:00 +4°C° 0 mm 6 m/S 753 mmHg 86%
17:00 +4°C° 0 mm 6 m/S 754 mmHg 86%
18:00 +3°C° 0.1 mm 6 m/S 754 mmHg 86%
19:00 +3°C° 0.1 mm 6 m/S 754 mmHg 86%
20:00 +2°C° 0.1 mm 6 m/S 754 mmHg 85%
21:00 +2°C° 0.1 mm 6 m/S 754 mmHg 85%
22:00 +2°C° 0.1 mm 6 m/S 754 mmHg 85%
23:00 +2°C° 0.1 mm 6 m/S 755 mmHg 84%

16 April, Freitag

Zeit Temperatur Niederschläge Wind Luftdruck Luftfeuchtigkeit
00:00 +2°C° 0.1 mm 6 m/S 755 mmHg 86%
01:00 +2°C° 0.1 mm 6 m/S 755 mmHg 87%
02:00 +2°C° 0.1 mm 6 m/S 755 mmHg 88%
03:00 +2°C° 0 mm 6 m/S 755 mmHg 88%
04:00 +2°C° 0 mm 6 m/S 755 mmHg 88%
05:00 +2°C° 0 mm 6 m/S 755 mmHg 89%
06:00 +2°C° 0.1 mm 6 m/S 755 mmHg 88%
07:00 +2°C° 0.1 mm 6 m/S 755 mmHg 88%
08:00 +2°C° 0.1 mm 6 m/S 756 mmHg 87%
09:00 +2°C° 0 mm 6 m/S 756 mmHg 86%
10:00 +2°C° 0 mm 6 m/S 757 mmHg 84%
11:00 +2°C° 0 mm 6 m/S 757 mmHg 83%
12:00 +3°C° 0 mm 6 m/S 757 mmHg 79%
13:00 +4°C° 0 mm 6 m/S 757 mmHg 75%
14:00 +5°C° 0 mm 6 m/S 758 mmHg 71%
15:00 +7°C° 0 mm 6 m/S 758 mmHg 69%
16:00 +7°C° 0 mm 6 m/S 758 mmHg 67%
17:00 +8°C° 0 mm 6 m/S 758 mmHg 65%
18:00 +7°C° 0 mm 5 m/S 758 mmHg 66%
19:00 +6°C° 0 mm 5 m/S 759 mmHg 68%
20:00 +6°C° 0 mm 4 m/S 759 mmHg 69%
21:00 +5°C° 0 mm 4 m/S 760 mmHg 69%
22:00 +5°C° 0 mm 5 m/S 760 mmHg 69%
23:00 +3°C° 0 mm 5 m/S 760 mmHg 69%
Mehr zeigen

Wir brauchen deine Erlaubnis

Meteoprog und unser Service Anbieter werden persönliche Daten aufbewahren, so wie Cookies, Geräte Bezeichnung oder ähnliche Technologien von deinem Gerät und Prozess, so wie Persönliche Daten Inhalte und Werbungen, genauso wie social Media und den Verkehr zu analysieren.

  • Aufbewahrung und/oder Zugang zu deiner Geräte Informationen.

    Cookies, Geräte Bezeichnung oder andere Informationen, können aufbewahrt oder Zugang zu deinem Gerät erhalten, für den Grund, der oben angegeben wird.

  • Personalisierte Werbung und Inhalte, Messungen, Einblick in das Publikum und Produkt Entwicklung.

    Werbungen und Inhalte können personalisiert werden, basierend auf ein Profil. Mehr Daten können besser personalisierte Werbungen und Inhalte hinzufügen. Werbung und Inhalte können gezeigt und gemessen werden. Einblicke über das Publikum, welche die Werbung gesehen haben und den Inhalt, können abgeleitet werden. So wie Daten können genutzt werden, um es zu verbessern oder die Benutzer Erfahrung zu verbessern das System und die Software.

Wenn du “Ich stimme zu” klickst, erlaubst du uns, die Cookies zu benutzen die Geräte Bezeichnung, den Web oder ähnliche Technologien zu benutzen. Deine Settings, können in deinem Gerät bei deinem Browser geändert werden.

Für den bestimmten Zweck, berechtigten Interessen beruhen darauf, mehr als auf den Inhalt. Du kannst mehr darüber in unseren Privaten und Cookie Politik lesen.